Regional Weather Roundup
Issued by NWS

Home | Current Version | Previous Version | Text Only | Print | Product List | Glossary On
Versions: 1 2 3 4 5 6 7 8 9 10 11 12 13 14 15 16 17 18 19 20 21 22 23 24 25 26 27 28 29 30 31 32 33 34 35 36 37 38 39 40 41 42 43 44 45 46 47 48 49 50
000
ASUS43 KLMK 271602
RWRKY
KENTUCKY REGIONAL WEATHER ROUNDUP
NATIONAL WEATHER SERVICE LOUISVILLE KY
1200 PM EDT FRI MAR 27 2015

NOTE "FAIR" INDICATES FEW OR NO CLOUDS BELOW 12,000 FEET
WITH NO SIGNIFICANT WEATHER AND/OR OBSTRUCTIONS TO VISIBILITY.

KYZ001>023-026-027-061>063-070>075-271700-
WESTERN AND SOUTH CENTRAL KENTUCKY

CITY           SKY/WX    TMP DP  RH WIND       PRES   REMARKS
PADUCAH        CLOUDY    42  31  64 N15       30.10R
HENDERSON      CLOUDY    43  30  61 N12       30.07S
OWENSBORO      MOSUNNY   43  33  67 N7        30.06S
HOPKINSVILLE   MOSUNNY   44  35  70 N8        30.03F
BOWLING GREEN  PTSUNNY   44  31  60 N7        30.03S
GLASGOW        NOT AVBL
$$

KYZ024-025-028>034-038-045-046-053-271700-
NORTH CENTRAL KENTUCKY

CITY           SKY/WX    TMP DP  RH WIND       PRES   REMARKS
LOUISVILLE/SDF PTSUNNY   41  26  55 N10       30.03S
LOUISVILLE/LOU MOSUNNY   42  27  55 N7G17     30.03S
FORT KNOX      PTSUNNY   40  29  64 N7        30.00S
$$

KYZ035>037-039>044-047>052-055>060-089>105-271700-
NORTHEAST KENTUCKY

CITY           SKY/WX    TMP DP  RH WIND       PRES   REMARKS
LEXINGTON      CLOUDY    40  26  57 N12       29.98F WCI  33
COVINGTON      PTSUNNY   35  23  61 N14       30.00S WCI  26
FRANKFORT      CLOUDY    39  24  55 N6        29.99S WCI  35
$$

KYZ054-064>069-076>088-106>120-271700-
SOUTHEAST KENTUCKY

CITY           SKY/WX    TMP DP  RH WIND       PRES   REMARKS
JACKSON        PTSUNNY   40  25  55 NW6       29.93F
LONDON         PTSUNNY   42  25  50 NW7       29.95S
SOMERSET       NOT AVBL
MIDDLESBORO    NOT AVBL
MONTICELLO     PTSUNNY   45  31  58 N13       29.99
$$




USA.gov is the U.S. government's official web portal to all federal, state and local government web resources and services.